Location: *
(46.1333°S, 161.2167°W)
Time: 04:04:02
(UTC+00:00)

Cosmos 2263 Rocket - Pass Details

Date: 15 July 2020
Orbit: 825 x 847 km, 71.0° (Epoch: 10 August)

Event Time Altitude Azimuth Distance (km) Brightness Sun altitude
Exits shadow 15:07:49 23° 164° (SSE) 1,741 3.9 -32.9°
Maximum altitude 15:09:52 29° 130° (SE) 1,532 3.9 -32.6°
Drops below altitude 10° 15:14:47 10° 71° (ENE) 2,484 5.4 -31.7°
Sets 15:17:33 0° 59° (ENE) 3,410 6.2 -31.2°
